Dickinson, ND

1:07 AM MDT on June 23, 2017 (GMT -0600)
Dickinson Municipal

Weather History for KDIK - November, 2013

Change the Weather History Date:

Wednesday, November 20, 2013

  Actual Average Record
Temperature  
Mean Temperature 19 °F 27 °F  
Max Temperature 32 °F 37 °F 65 °F (1908)
Min Temperature 5 °F 17 °F -15 °F (1937)
Degree Days  
Heating Degree Days 46 38  
Month to date heating degree days 632 660  
Since 1 July heating degree days 1513 1671  
Cooling Degree Days 0 0  
Month to date cooling degree days 0 0  
Year to date cooling degree days 386 419  
Moisture  
Dew Point 8 °F    
Average Humidity 75    
Maximum Humidity 88    
Minimum Humidity 62    
Precipitation  
Precipitation T in 0.02 in 0.35 in (1977)
Month to date precipitation 0.06 0.43  
Year to date precipitation 21.00 15.42  
Sea Level Pressure  
Sea Level Pressure 30.06 in    
Wind  
Wind Speed 15 mph (NNW)    
Max Wind Speed 24 mph    
Max Gust Speed 30 mph    
Visibility 6 miles    
Events Snow    
T = Trace of Precipitation, MM = Missing Value Source: NWS Daily Summary

Daily Weather History Graph

Daily Weather History Graph

Search for Another Location

Airport or City:

Trip Planner

Search our weather history database for the weather conditions in past years. The results will help you decide how hot, cold, wet, or windy it might be!

Date:

Astronomy

Nov. 20, 2013 Rise Set
Actual Time 7:01 AM MST 4:11 PM MST
Civil Twilight 6:27 AM MST 4:45 PM MST
Nautical Twilight 5:50 AM MST 5:22 PM MST
Astronomical Twilight 5:14 AM MST 5:58 PM MST
Moon 6:56 PM MST (11/20) 9:28 AM MST (11/20)
Length of Visible Light 10h 17m
Length of Day
9h 10m
Waning Gibbous, 91% of the Moon is Illuminated
Nov 20
Waning Gibbous
Nov 25
Last Quarter
Dec 2
New
Dec 9
First Quarter
Dec 17
Full

Hourly Weather History & Observations

Time (MST) Temp. Windchill Dew Point Humidity Pressure Visibility Wind Dir Wind Speed Gust Speed Precip Events Conditions
12:26 AM 28.0 °F 16.5 °F 23.0 °F 81% 29.68 in 10.0 mi NNW 15.0 mph - N/A   Overcast
12:43 AM 25.0 °F 12.2 °F 21.0 °F 85% 29.68 in 6.0 mi NNW 16.1 mph - N/A   Overcast
12:56 AM 25.0 °F 14.2 °F 21.9 °F 88% 29.75 in 5.0 mi NNW 11.5 mph - N/A   Overcast
1:10 AM 25.0 °F 13.1 °F 21.9 °F 88% 29.70 in 5.0 mi NNW 13.8 mph - N/A   Overcast
1:56 AM 23.0 °F 10.6 °F 19.0 °F 85% 29.80 in 6.0 mi NNW 13.8 mph - N/A   Overcast
2:47 AM 19.0 °F 6.1 °F 14.0 °F 81% 29.77 in 10.0 mi NNW 12.7 mph 20.7 mph N/A   Mostly Cloudy
2:56 AM 19.0 °F 6.8 °F 14.0 °F 81% 29.84 in 10.0 mi NNW 11.5 mph - N/A   Scattered Clouds
3:56 AM 19.0 °F 6.1 °F 14.0 °F 81% 29.87 in 10.0 mi NNW 12.7 mph - N/A   Overcast
4:05 AM 19.0 °F 4.5 °F 14.0 °F 81% 29.80 in 10.0 mi NNW 16.1 mph - N/A   Overcast
4:28 AM 19.0 °F 4.0 °F 12.9 °F 77% 29.81 in 10.0 mi NNW 17.3 mph - N/A   Mostly Cloudy
4:56 AM 19.0 °F 6.8 °F 10.9 °F 71% 29.91 in 10.0 mi NNW 11.5 mph - N/A   Mostly Cloudy
5:56 AM 18.0 °F 5.4 °F 10.9 °F 74% 29.94 in 10.0 mi NNW 11.5 mph - N/A   Mostly Cloudy
6:56 AM 18.0 °F 6.1 °F 10.9 °F 74% 29.94 in 10.0 mi North 10.4 mph - N/A   Overcast
7:56 AM 19.0 °F 7.5 °F 10.9 °F 71% 29.97 in 10.0 mi NNW 10.4 mph - N/A   Mostly Cloudy
8:56 AM 19.0 °F 8.2 °F 10.0 °F 68% 29.99 in 10.0 mi North 9.2 mph - N/A   Mostly Cloudy
9:56 AM 19.9 °F 9.3 °F 10.0 °F 65% 29.98 in 10.0 mi North 9.2 mph - N/A   Overcast
10:56 AM 21.0 °F 11.4 °F 10.9 °F 65% 29.98 in 10.0 mi North 8.1 mph - N/A   Overcast
11:04 AM 21.0 °F 11.4 °F 10.9 °F 65% 29.88 in 10.0 mi North 8.1 mph - N/A   Overcast
11:56 AM 19.9 °F 9.3 °F 10.0 °F 65% 30.00 in 10.0 mi NNW 9.2 mph - N/A   Overcast
12:43 PM 18.0 °F 1.3 °F 10.0 °F 71% 29.93 in 2.0 mi NNW 20.7 mph - 0.00 in Snow Light Snow
12:56 PM 17.1 °F -0.6 °F 9.0 °F 71% 30.04 in 2.5 mi NNW 23.0 mph 27.6 mph 0.00 in Snow Light Snow
1:08 PM 16.0 °F -0.9 °F 8.1 °F 71% 29.93 in 5.0 mi NNW 19.6 mph 27.6 mph 0.00 in Snow Light Snow
1:56 PM 15.1 °F -2.5 °F 7.0 °F 70% 30.09 in 8.0 mi NNW 20.7 mph 26.5 mph 0.00 in Snow Light Snow
2:23 PM 14.0 °F -3.0 °F 6.1 °F 71% 29.99 in 1.8 mi NNW 18.4 mph 25.3 mph 0.00 in Snow Light Snow
2:34 PM 12.9 °F -5.3 °F 6.1 °F 74% 29.99 in 0.8 mi NNW 20.7 mph 29.9 mph 0.00 in Snow Light Snow
2:39 PM 12.9 °F -4.4 °F 6.1 °F 74% 29.99 in 1.0 mi NNW 18.4 mph 29.9 mph 0.00 in Snow Light Snow
2:50 PM 12.2 °F -5.3 °F 6.8 °F 79% 30.00 in 0.8 mi NNW 18.4 mph - 0.00 in Snow Light Snow
2:56 PM 12.9 °F -3.4 °F 7.0 °F 77% 30.14 in 1.0 mi NNW 16.1 mph 24.2 mph 0.00 in Snow Light Snow
3:09 PM 12.9 °F -3.9 °F 6.1 °F 74% 30.02 in 1.0 mi NNW 17.3 mph 25.3 mph 0.00 in Snow Light Snow
3:15 PM 12.9 °F -4.4 °F 6.1 °F 74% 30.03 in 3.0 mi NNW 18.4 mph - 0.00 in Snow Light Snow
3:21 PM 12.9 °F -3.4 °F 6.1 °F 74% 30.03 in 1.8 mi NNW 16.1 mph - 0.00 in Snow Light Snow
3:29 PM 12.9 °F -2.2 °F 7.0 °F 77% 30.04 in 0.8 mi NNW 13.8 mph - 0.00 in Snow Light Snow
3:38 PM 12.9 °F -3.4 °F 6.1 °F 74% 30.04 in 1.5 mi NNW 16.1 mph 25.3 mph 0.00 in Snow Light Snow
3:46 PM 12.9 °F -4.9 °F 6.1 °F 74% 30.05 in 3.0 mi NNW 19.6 mph 26.5 mph 0.00 in Snow Light Snow
3:56 PM 12.0 °F -5.6 °F 5.0 °F 73% 30.19 in 2.0 mi NNW 18.4 mph 26.5 mph 0.00 in Snow Light Snow
4:10 PM 12.0 °F -4.0 °F 5.0 °F 73% 30.07 in 4.0 mi NNW 15.0 mph - 0.00 in Snow Light Snow
4:28 PM 12.0 °F -5.1 °F 6.1 °F 77% 30.08 in 1.8 mi NNW 17.3 mph - 0.00 in Snow Light Snow
4:34 PM 12.0 °F -5.1 °F 6.1 °F 77% 30.09 in 0.8 mi NW 17.3 mph - 0.00 in Snow Light Snow
4:56 PM 10.0 °F -7.6 °F 5.0 °F 80% 30.26 in 0.8 mi NNW 17.3 mph - 0.00 in Snow Light Snow
5:06 PM 10.0 °F -8.1 °F 5.0 °F 80% 30.13 in 1.0 mi NW 18.4 mph - 0.00 in Snow Light Snow
5:28 PM 10.0 °F -7.6 °F 5.0 °F 80% 30.14 in 2.0 mi NW 17.3 mph - 0.00 in Snow Light Snow
5:51 PM 10.4 °F -7.7 °F 3.2 °F 73% 30.15 in 1.8 mi NNW 18.4 mph - 0.00 in Snow Light Snow
5:56 PM 10.0 °F -8.1 °F 3.0 °F 73% 30.30 in 2.5 mi NNW 18.4 mph - 0.00 in Snow Light Snow
6:03 PM 10.0 °F -8.6 °F 3.9 °F 76% 30.16 in 7.0 mi NW 19.6 mph - 0.00 in Snow Light Snow
6:56 PM 10.0 °F -9.5 °F 3.9 °F 76% 30.34 in 4.0 mi NW 21.9 mph - 0.00 in Snow Light Snow
7:00 PM 10.0 °F -9.1 °F 3.9 °F 76% 30.19 in 2.5 mi NW 20.7 mph 27.6 mph 0.00 in Snow Light Snow
7:18 PM 10.0 °F -9.1 °F 3.9 °F 76% 30.21 in 2.5 mi NW 20.7 mph - 0.00 in Snow Light Snow
7:47 PM 10.0 °F -7.6 °F 3.9 °F 76% 30.23 in 6.0 mi NW 17.3 mph - 0.00 in Snow Light Snow
7:56 PM 10.0 °F -9.1 °F 3.9 °F 76% 30.38 in 9.0 mi NW 20.7 mph - 0.00 in   Mostly Cloudy
8:16 PM 10.0 °F -8.1 °F 3.9 °F 76% 30.25 in 10.0 mi NNW 18.4 mph 25.3 mph N/A   Mostly Cloudy
8:37 PM 9.0 °F -10.0 °F 3.0 °F 77% 30.27 in 9.0 mi NW 19.6 mph - N/A   Overcast
8:56 PM 9.0 °F -10.0 °F 3.0 °F 77% 30.42 in 10.0 mi NW 19.6 mph 25.3 mph N/A   Overcast
9:36 PM 8.1 °F -12.2 °F 1.9 °F 76% 30.30 in 10.0 mi NW 21.9 mph 26.5 mph N/A   Mostly Cloudy
9:52 PM 8.6 °F -11.4 °F 1.4 °F 73% 30.30 in 10.0 mi NW 21.9 mph 28.8 mph N/A   Scattered Clouds
9:56 PM 8.1 °F -12.2 °F 1.0 °F 73% 30.45 in 10.0 mi NW 21.9 mph 28.8 mph N/A   Partly Cloudy
10:56 PM 7.0 °F -12.1 °F -0.0 °F 73% 30.48 in 10.0 mi NW 18.4 mph - N/A   Scattered Clouds
11:56 PM 6.1 °F -12.8 °F -0.9 °F 73% 30.50 in 10.0 mi NW 17.3 mph 28.8 mph N/A   Clear